Time,TemperatureF,DewpointF,PressureIn,WindDirection,WindDirectionDegrees,WindSpeedMPH,WindSpeedGustMPH,Humidity,HourlyPrecipIn,Conditions,Clouds,dailyrainin,SolarRadiationWatts/m^2,SoftwareType,DateUTC
2013-05-23 00:12:00,73.0,68.0,30.35,East,82,8.0,15.0,84,0.00,,,0.00,0.000000,,2013-05-23 10:12:00,
2013-05-23 00:22:00,73.0,68.0,30.35,East,82,8.0,15.0,84,0.00,,,0.00,0.000000,,2013-05-23 10:22:00,
2013-05-23 00:32:00,73.0,68.0,30.35,East,82,8.0,15.0,84,0.00,,,0.00,0.000000,,2013-05-23 10:32:00,
2013-05-23 00:42:00,73.0,68.0,30.35,East,82,8.0,15.0,84,0.00,,,0.00,0.000000,,2013-05-23 10:42:00,
2013-05-23 00:52:00,73.0,68.0,30.35,East,82,8.0,15.0,84,0.00,,,0.00,0.000000,,2013-05-23 10:52:00,
2013-05-23 01:11:00,73.0,68.0,30.34,East,89,11.0,15.0,84,0.00,,,0.00,0.000000,,2013-05-23 11:11:00,
2013-05-23 01:21:00,73.0,68.0,30.34,East,89,11.0,15.0,84,0.00,,,0.00,0.000000,,2013-05-23 11:21:00,
2013-05-23 01:32:00,73.0,68.0,30.34,East,89,11.0,15.0,84,0.00,,,0.00,0.000000,,2013-05-23 11:32:00,
2013-05-23 01:41:00,73.0,68.0,30.34,East,89,11.0,15.0,84,0.00,,,0.00,0.000000,,2013-05-23 11:41:00,
2013-05-23 01:52:00,73.0,68.0,30.34,East,89,11.0,15.0,84,0.00,,,0.00,0.000000,,2013-05-23 11:52:00,
2013-05-23 02:11:00,73.0,67.0,30.32,ENE,67,10.0,16.0,82,0.00,,,0.00,0.000000,,2013-05-23 12:11:00,
2013-05-23 02:21:00,73.0,67.0,30.32,ENE,67,10.0,16.0,82,0.00,,,0.00,0.000000,,2013-05-23 12:21:00,
2013-05-23 02:32:00,73.0,67.0,30.32,ENE,67,10.0,16.0,82,0.00,,,0.00,0.000000,,2013-05-23 12:32:00,
2013-05-23 02:41:00,73.0,67.0,30.32,ENE,67,10.0,16.0,82,0.00,,,0.00,0.000000,,2013-05-23 12:41:00,
2013-05-23 02:51:00,73.0,67.0,30.32,ENE,67,10.0,16.0,82,0.00,,,0.00,0.000000,,2013-05-23 12:51:00,
2013-05-23 03:11:00,74.0,69.0,30.31,ENE,75,10.0,14.0,84,0.00,,,0.00,0.000000,,2013-05-23 13:11:00,
2013-05-23 03:21:00,74.0,69.0,30.31,ENE,75,10.0,14.0,84,0.00,,,0.00,0.000000,,2013-05-23 13:21:00,
2013-05-23 03:31:00,74.0,69.0,30.31,ENE,75,10.0,14.0,84,0.00,,,0.00,0.000000,,2013-05-23 13:31:00,
2013-05-23 03:41:00,74.0,69.0,30.31,ENE,75,10.0,14.0,84,0.00,,,0.00,0.000000,,2013-05-23 13:41:00,
2013-05-23 03:52:00,74.0,69.0,30.31,ENE,75,10.0,14.0,84,0.00,,,0.00,0.000000,,2013-05-23 13:52:00,
2013-05-23 04:11:00,74.0,70.0,30.31,ENE,76,10.0,16.0,86,0.00,,,0.00,0.000000,,2013-05-23 14:11:00,
2013-05-23 04:21:00,74.0,70.0,30.31,ENE,76,10.0,16.0,86,0.00,,,0.00,0.000000,,2013-05-23 14:21:00,
2013-05-23 04:32:00,74.0,70.0,30.31,ENE,76,10.0,16.0,86,0.00,,,0.00,0.000000,,2013-05-23 14:32:00,
2013-05-23 04:41:00,74.0,70.0,30.31,ENE,76,10.0,16.0,86,0.00,,,0.00,0.000000,,2013-05-23 14:41:00,
2013-05-23 04:52:00,74.0,70.0,30.31,ENE,76,10.0,16.0,86,0.00,,,0.00,0.000000,,2013-05-23 14:52:00,
2013-05-23 04:53:00,72.0,68.0,30.31,NNE,33,8.0,16.0,87,0.00,,,0.00,0.000000,,2013-05-23 14:53:00,
2013-05-23 05:11:00,72.0,68.0,30.31,NNE,33,8.0,16.0,87,0.00,,,0.00,0.000000,,2013-05-23 15:11:00,
2013-05-23 05:21:00,72.0,68.0,30.31,NNE,33,8.0,16.0,87,0.00,,,0.00,0.000000,,2013-05-23 15:21:00,
2013-05-23 05:32:00,72.0,68.0,30.31,NNE,33,8.0,16.0,87,0.00,,,0.00,0.000000,,2013-05-23 15:32:00,
2013-05-23 05:42:00,72.0,68.0,30.31,NNE,33,8.0,16.0,87,0.00,,,0.00,0.000000,,2013-05-23 15:42:00,
2013-05-23 06:12:00,73.0,69.0,30.32,NNE,18,7.0,11.0,88,0.00,,,0.00,0.000000,,2013-05-23 16:12:00,
2013-05-23 06:22:00,73.0,69.0,30.32,NNE,18,7.0,11.0,88,0.00,,,0.00,0.000000,,2013-05-23 16:22:00,
2013-05-23 06:33:00,73.0,69.0,30.32,NNE,18,7.0,11.0,88,0.00,,,0.00,0.000000,,2013-05-23 16:33:00,
2013-05-23 06:42:00,73.0,69.0,30.32,NNE,18,7.0,11.0,88,0.00,,,0.00,0.000000,,2013-05-23 16:42:00,
2013-05-23 06:52:00,73.0,69.0,30.32,NNE,18,7.0,11.0,88,0.00,,,0.00,0.000000,,2013-05-23 16:52:00,
2013-05-23 07:11:00,74.0,68.0,30.34,ENE,73,10.0,15.0,82,0.00,,,0.00,0.000000,,2013-05-23 17:11:00,
2013-05-23 07:22:00,74.0,68.0,30.34,ENE,73,10.0,15.0,82,0.00,,,0.00,0.000000,,2013-05-23 17:22:00,
2013-05-23 07:33:00,74.0,68.0,30.34,ENE,73,10.0,15.0,82,0.00,,,0.00,0.000000,,2013-05-23 17:33:00,
2013-05-23 07:42:00,74.0,68.0,30.34,ENE,73,10.0,15.0,82,0.00,,,0.00,0.000000,,2013-05-23 17:42:00,
2013-05-23 07:52:00,74.0,68.0,30.34,ENE,73,10.0,15.0,82,0.00,,,0.00,0.000000,,2013-05-23 17:52:00,
2013-05-23 08:11:00,76.0,69.0,30.35,ENE,70,13.0,19.0,78,0.00,,,0.00,65.000000,,2013-05-23 18:11:00,
2013-05-23 08:21:00,76.0,69.0,30.35,ENE,70,13.0,19.0,78,0.00,,,0.00,65.000000,,2013-05-23 18:21:00,
2013-05-23 08:32:00,76.0,69.0,30.35,ENE,70,13.0,19.0,78,0.00,,,0.00,65.000000,,2013-05-23 18:32:00,
2013-05-23 08:42:00,76.0,69.0,30.35,ENE,70,13.0,19.0,78,0.00,,,0.00,65.000000,,2013-05-23 18:42:00,
2013-05-23 08:51:00,76.0,69.0,30.35,ENE,70,13.0,19.0,78,0.00,,,0.00,65.000000,,2013-05-23 18:51:00,
2013-05-23 09:11:00,77.0,68.0,30.37,East,81,14.0,22.0,74,0.00,,,0.00,342.000000,,2013-05-23 19:11:00,
2013-05-23 09:21:00,77.0,68.0,30.37,East,81,14.0,22.0,74,0.00,,,0.00,342.000000,,2013-05-23 19:21:00,
2013-05-23 09:31:00,77.0,68.0,30.37,East,81,14.0,22.0,74,0.00,,,0.00,342.000000,,2013-05-23 19:31:00,
2013-05-23 09:41:00,77.0,68.0,30.37,East,81,14.0,22.0,74,0.00,,,0.00,342.000000,,2013-05-23 19:41:00,
2013-05-23 09:52:00,77.0,68.0,30.37,East,81,14.0,22.0,74,0.00,,,0.00,342.000000,,2013-05-23 19:52:00,
2013-05-23 10:11:00,79.0,70.0,30.37,East,86,15.0,22.0,75,0.00,,,0.00,617.000000,,2013-05-23 20:11:00,
2013-05-23 10:21:00,79.0,70.0,30.37,East,86,15.0,22.0,75,0.00,,,0.00,617.000000,,2013-05-23 20:21:00,
2013-05-23 10:32:00,79.0,70.0,30.37,East,86,15.0,22.0,75,0.00,,,0.00,617.000000,,2013-05-23 20:32:00,
2013-05-23 10:41:00,79.0,70.0,30.37,East,86,15.0,22.0,75,0.00,,,0.00,617.000000,,2013-05-23 20:41:00,
2013-05-23 10:51:00,79.0,70.0,30.37,East,86,15.0,22.0,75,0.00,,,0.00,617.000000,,2013-05-23 20:51:00,
2013-05-23 10:53:00,79.0,69.0,30.36,East,93,17.0,25.0,71,0.00,,,0.00,655.000000,,2013-05-23 20:53:00,
2013-05-23 11:11:00,79.0,69.0,30.36,East,93,17.0,25.0,71,0.00,,,0.00,655.000000,,2013-05-23 21:11:00,
2013-05-23 11:21:00,79.0,69.0,30.36,East,93,17.0,25.0,71,0.00,,,0.00,655.000000,,2013-05-23 21:21:00,
2013-05-23 11:32:00,79.0,69.0,30.36,East,93,17.0,25.0,71,0.00,,,0.00,655.000000,,2013-05-23 21:32:00,
2013-05-23 11:43:00,79.0,69.0,30.36,East,93,17.0,25.0,71,0.00,,,0.00,655.000000,,2013-05-23 21:43:00,
2013-05-23 12:12:00,79.0,70.0,30.35,East,90,17.0,27.0,73,0.00,,,-99.99,1066.000000,,2013-05-23 22:12:00,
2013-05-23 12:22:00,79.0,70.0,30.35,East,90,17.0,27.0,73,0.00,,,-99.99,1066.000000,,2013-05-23 22:22:00,
2013-05-23 12:33:00,79.0,70.0,30.35,East,90,17.0,27.0,73,0.00,,,-99.99,1066.000000,,2013-05-23 22:33:00,
2013-05-23 12:42:00,79.0,70.0,30.35,East,90,17.0,27.0,73,0.00,,,-99.99,1066.000000,,2013-05-23 22:42:00,
2013-05-23 12:52:00,79.0,70.0,30.35,East,90,17.0,27.0,73,0.00,,,-99.99,1066.000000,,2013-05-23 22:52:00,
2013-05-23 13:11:00,79.0,70.0,30.34,East,84,17.0,25.0,75,0.00,,,-99.99,914.000000,,2013-05-23 23:11:00,
2013-05-23 13:21:00,79.0,70.0,30.34,East,84,17.0,25.0,75,0.00,,,-99.99,914.000000,,2013-05-23 23:21:00,
2013-05-23 13:31:00,79.0,70.0,30.34,East,84,17.0,25.0,75,0.00,,,-99.99,914.000000,,2013-05-23 23:31:00,
2013-05-23 13:42:00,79.0,70.0,30.34,East,84,17.0,25.0,75,0.00,,,-99.99,914.000000,,2013-05-23 23:42:00,
2013-05-23 13:52:00,79.0,70.0,30.34,East,84,17.0,25.0,75,0.00,,,-99.99,914.000000,,2013-05-23 23:52:00,
2013-05-23 14:12:00,78.0,69.0,30.31,East,91,19.0,29.0,73,0.00,,,0.00,589.000000,,2013-05-24 00:12:00,
2013-05-23 14:21:00,78.0,69.0,30.31,East,91,19.0,29.0,73,0.00,,,0.00,589.000000,,2013-05-24 00:21:00,
2013-05-23 14:31:00,78.0,69.0,30.31,East,91,19.0,29.0,73,0.00,,,0.00,589.000000,,2013-05-24 00:31:00,
2013-05-23 14:42:00,78.0,69.0,30.31,East,91,19.0,29.0,73,0.00,,,0.00,589.000000,,2013-05-24 00:42:00,
2013-05-23 14:52:00,78.0,69.0,30.31,East,91,19.0,29.0,73,0.00,,,0.00,589.000000,,2013-05-24 00:52:00,
2013-05-23 15:12:00,78.0,69.0,30.30,East,91,19.0,30.0,75,0.00,,,0.00,987.000000,,2013-05-24 01:12:00,
2013-05-23 15:22:00,78.0,69.0,30.30,East,91,19.0,30.0,75,0.00,,,0.00,987.000000,,2013-05-24 01:22:00,
2013-05-23 15:32:00,78.0,69.0,30.30,East,91,19.0,30.0,75,0.00,,,0.00,987.000000,,2013-05-24 01:32:00,
2013-05-23 15:41:00,78.0,69.0,30.30,East,91,19.0,30.0,75,0.00,,,0.00,987.000000,,2013-05-24 01:41:00,
2013-05-23 15:52:00,78.0,69.0,30.30,East,91,19.0,30.0,75,0.00,,,0.00,987.000000,,2013-05-24 01:52:00,
2013-05-23 16:11:00,77.0,68.0,30.30,East,88,18.0,28.0,75,0.00,,,0.00,703.000000,,2013-05-24 02:11:00,
2013-05-23 16:21:00,77.0,68.0,30.30,East,88,18.0,28.0,75,0.00,,,0.00,703.000000,,2013-05-24 02:21:00,
2013-05-23 16:32:00,77.0,68.0,30.30,East,88,18.0,28.0,75,0.00,,,0.00,703.000000,,2013-05-24 02:32:00,
2013-05-23 16:42:00,77.0,68.0,30.30,East,88,18.0,28.0,75,0.00,,,0.00,703.000000,,2013-05-24 02:42:00,
2013-05-23 16:52:00,77.0,68.0,30.30,East,88,18.0,28.0,75,0.00,,,0.00,703.000000,,2013-05-24 02:52:00,
2013-05-23 17:11:00,78.0,69.0,30.29,East,87,16.0,30.0,75,0.00,,,0.00,517.000000,,2013-05-24 03:11:00,
2013-05-23 17:21:00,78.0,69.0,30.29,East,87,16.0,30.0,75,0.00,,,0.00,517.000000,,2013-05-24 03:21:00,
2013-05-23 17:33:00,78.0,69.0,30.29,East,87,16.0,30.0,75,0.00,,,0.00,517.000000,,2013-05-24 03:33:00,
2013-05-23 17:42:00,78.0,69.0,30.29,East,87,16.0,30.0,75,0.00,,,0.00,517.000000,,2013-05-24 03:42:00,
2013-05-23 17:52:00,78.0,69.0,30.29,East,87,16.0,30.0,75,0.00,,,0.00,517.000000,,2013-05-24 03:52:00,
2013-05-23 18:12:00,75.0,68.0,30.29,East,91,17.0,27.0,79,0.00,,,0.00,555.000000,,2013-05-24 04:12:00,
2013-05-23 18:22:00,75.0,68.0,30.29,East,91,17.0,27.0,79,0.00,,,0.00,555.000000,,2013-05-24 04:22:00,
2013-05-23 18:33:00,75.0,68.0,30.29,East,91,17.0,27.0,79,0.00,,,0.00,555.000000,,2013-05-24 04:33:00,
2013-05-23 18:42:00,75.0,68.0,30.29,East,91,17.0,27.0,79,0.00,,,0.00,555.000000,,2013-05-24 04:42:00,
2013-05-23 18:52:00,75.0,68.0,30.29,East,91,17.0,27.0,79,0.00,,,0.00,555.000000,,2013-05-24 04:52:00,
2013-05-23 19:12:00,76.0,69.0,30.31,ENE,74,14.0,26.0,79,0.00,,,0.00,123.000000,,2013-05-24 05:12:00,
2013-05-23 19:22:00,76.0,69.0,30.31,ENE,74,14.0,26.0,79,0.00,,,0.00,123.000000,,2013-05-24 05:22:00,
2013-05-23 19:32:00,76.0,69.0,30.31,ENE,74,14.0,26.0,79,0.00,,,0.00,123.000000,,2013-05-24 05:32:00,
2013-05-23 19:42:00,76.0,69.0,30.31,ENE,74,14.0,26.0,79,0.00,,,0.00,123.000000,,2013-05-24 05:42:00,
2013-05-23 19:52:00,76.0,69.0,30.31,ENE,74,14.0,26.0,79,0.00,,,0.00,123.000000,,2013-05-24 05:52:00,
2013-05-23 20:12:00,73.0,68.0,30.32,East,84,15.0,23.0,84,0.00,,,0.00,109.000000,,2013-05-24 06:12:00,
2013-05-23 20:21:00,73.0,68.0,30.32,East,84,15.0,23.0,84,0.00,,,0.00,109.000000,,2013-05-24 06:21:00,
2013-05-23 20:32:00,73.0,68.0,30.32,East,84,15.0,23.0,84,0.00,,,0.00,109.000000,,2013-05-24 06:32:00,
2013-05-23 20:41:00,73.0,68.0,30.32,East,84,15.0,23.0,84,0.00,,,0.00,109.000000,,2013-05-24 06:41:00,
2013-05-23 20:52:00,73.0,68.0,30.32,East,84,15.0,23.0,84,0.00,,,0.00,109.000000,,2013-05-24 06:52:00,
2013-05-23 21:11:00,74.0,70.0,30.33,East,86,17.0,28.0,88,0.00,,,0.00,0.000000,,2013-05-24 07:11:00,
2013-05-23 21:22:00,74.0,70.0,30.33,East,86,17.0,28.0,88,0.00,,,0.00,0.000000,,2013-05-24 07:22:00,
2013-05-23 21:31:00,74.0,70.0,30.33,East,86,17.0,28.0,88,0.00,,,0.00,0.000000,,2013-05-24 07:31:00,
2013-05-23 21:41:00,74.0,70.0,30.33,East,86,17.0,28.0,88,0.00,,,0.00,0.000000,,2013-05-24 07:41:00,
2013-05-23 21:52:00,74.0,70.0,30.33,East,86,17.0,28.0,88,0.00,,,0.00,0.000000,,2013-05-24 07:52:00,
2013-05-23 22:11:00,75.0,71.0,30.35,East,89,13.0,26.0,86,0.00,,,0.00,0.000000,,2013-05-24 08:11:00,
2013-05-23 22:22:00,75.0,71.0,30.35,East,89,13.0,26.0,86,0.00,,,0.00,0.000000,,2013-05-24 08:22:00,
2013-05-23 22:32:00,75.0,71.0,30.35,East,89,13.0,26.0,86,0.00,,,0.00,0.000000,,2013-05-24 08:32:00,
2013-05-23 22:41:00,75.0,71.0,30.35,East,89,13.0,26.0,86,0.00,,,0.00,0.000000,,2013-05-24 08:41:00,
2013-05-23 22:51:00,75.0,71.0,30.35,East,89,13.0,26.0,86,0.00,,,0.00,0.000000,,2013-05-24 08:51:00,
2013-05-23 23:11:00,72.0,67.0,30.37,ENE,74,16.0,30.0,83,0.00,,,0.00,0.000000,,2013-05-24 09:11:00,
2013-05-23 23:21:00,72.0,67.0,30.37,ENE,74,16.0,30.0,83,0.00,,,0.00,0.000000,,2013-05-24 09:21:00,
2013-05-23 23:32:00,72.0,67.0,30.37,ENE,74,16.0,30.0,83,0.00,,,0.00,0.000000,,2013-05-24 09:32:00,
2013-05-23 23:42:00,72.0,67.0,30.37,ENE,74,16.0,30.0,83,0.00,,,0.00,0.000000,,2013-05-24 09:42:00,
2013-05-23 23:52:00,72.0,67.0,30.37,ENE,74,16.0,30.0,83,0.00,,,0.00,0.000000,,2013-05-24 09:52:00,